GFSSGP_850_spd_354.txt.gz
Wind_Speed
15 12 17 15 4 3 4 7 2 5 2 4 5 10 12 6 3 4 20 19 20 23 23 22 22 22 22 22 21 20 20 21 22 21 22 22 21 17 16 14 16 21 25 26 27 27 25 25 26
20 14 19 5 5 5 5 5 7 8 2 25 20 15 9 4 7 20 24 18 17 23 24 24 24 23 23 22 21 20 21 21 21 21 21 21 16 15 14 15 17 21 25 26 27 25 26 26 23
15 19 12 5 4 13 8 7 17 8 19 6 8 14 6 8 18 29 20 20 20 25 23 24 25 25 23 21 21 21 21 21 21 22 22 18 16 14 15 15 17 21 22 26 26 26 24 21 17
17 16 6 4 14 5 9 8 9 5 8 4 23 10 8 10 14 19 23 18 20 24 24 25 25 25 24 22 21 20 21 21 21 21 21 19 16 15 14 16 18 18 22 24 26 22 23 20 19
22 11 4 8 8 5 8 8 21 8 9 11 10 6 6 18 18 25 24 20 22 24 24 24 25 24 24 23 21 21 21 19 19 19 18 11 15 15 14 13 17 20 24 26 26 22 21 18 17
14 11 8 14 12 7 14 16 14 13 14 14 12 10 6 20 27 27 24 20 20 25 25 25 24 24 23 23 22 21 20 20 18 17 14 15 15 13 14 14 15 21 24 27 25 22 20 17 14
10 5 13 17 10 8 18 21 9 8 13 5 28 6 16 33 29 27 26 20 21 24 26 25 24 24 22 22 22 22 18 17 18 17 16 15 14 14 14 15 16 20 25 26 23 21 20 16 12
12 3 3 9 17 15 11 23 25 24 5 24 20 9 17 35 29 28 24 21 21 22 25 26 25 24 23 22 20 20 20 20 18 16 14 14 15 15 14 15 16 19 25 24 20 22 19 16 15
16 6 13 8 16 14 13 12 20 23 23 9 6 30 40 38 34 29 26 25 23 24 26 26 25 25 24 23 22 21 22 16 16 15 15 17 17 16 15 15 17 22 25 23 22 21 18 16 12
8 6 15 4 7 13 13 11 14 10 16 8 18 27 41 39 36 31 31 30 28 30 28 27 26 26 26 25 25 24 21 18 18 17 18 16 16 15 16 17 18 22 25 25 22 21 18 12 11
8 22 4 15 7 24 8 9 11 23 5 23 31 47 43 40 35 32 32 30 31 31 30 28 27 27 27 27 25 24 23 21 19 17 17 16 16 15 14 16 20 23 26 27 24 19 14 12 9
9 14 6 15 4 3 7 14 5 32 16 33 40 54 48 41 38 35 34 31 33 33 31 30 28 28 26 26 24 24 23 20 18 18 14 15 16 16 15 16 20 22 26 26 23 18 14 12 8
18 15 11 14 5 8 8 6 15 12 33 35 42 48 43 38 36 32 31 31 33 33 32 30 29 27 26 27 27 25 22 18 18 17 13 15 15 16 17 18 19 20 22 22 21 18 13 11 9
7 11 19 7 5 5 5 5 8 13 38 42 45 42 37 36 37 34 31 34 33 32 31 30 29 28 28 29 28 24 18 16 15 15 15 16 16 17 17 17 16 15 15 16 16 16 14 13 10
12 9 10 8 1 2 6 7 8 31 40 39 37 43 34 35 37 38 35 34 33 32 31 31 30 27 28 28 26 23 19 15 15 16 16 17 17 17 15 15 14 14 13 13 14 15 14 14 11
9 5 12 8 2 6 2 17 7 37 36 32 32 37 33 33 36 35 32 33 34 34 32 30 27 28 29 28 25 23 18 16 18 16 16 17 16 16 17 15 13 13 12 12 12 12 12 12 10
4 9 11 9 3 1 3 7 9 27 32 31 31 33 35 31 33 33 32 33 33 34 32 31 28 34 29 27 24 22 19 18 18 17 16 17 16 17 17 16 14 14 13 11 10 11 11 12 11
5 6 9 9 6 7 15 6 7 20 27 27 31 28 30 31 36 35 32 32 33 34 34 32 31 33 32 28 23 19 17 16 17 18 17 19 18 18 19 18 17 17 15 14 14 13 13 12 11
7 13 8 6 10 4 10 5 9 14 21 22 27 28 29 32 34 32 31 32 32 32 33 34 34 34 32 30 28 25 24 20 18 18 16 16 17 17 17 18 18 17 16 15 15 15 14 13 12
11 12 5 3 12 1 6 5 10 11 14 26 30 28 29 30 35 33 33 34 35 34 33 33 34 38 36 33 30 27 24 22 19 19 18 17 17 16 15 15 15 17 17 17 16 15 15 14 13
7 7 4 5 6 5 6 6 10 5 9 18 24 31 30 33 36 37 36 33 34 37 38 36 37 35 36 29 26 25 24 22 22 22 21 21 20 18 16 14 14 16 17 16 16 15 15 15 15
5 6 11 9 4 2 4 4 5 8 12 11 19 27 28 30 33 36 38 37 35 35 34 36 36 33 34 27 29 31 32 32 28 24 21 20 20 18 17 16 15 16 16 17 15 15 15 15 16
5 9 12 10 5 4 9 3 3 3 8 11 12 24 28 28 37 38 38 36 32 33 33 37 35 35 30 27 29 32 33 30 25 23 22 20 19 18 17 17 16 15 15 15 16 16 17 17 16
18 10 13 4 4 3 4 4 3 10 12 7 16 27 31 29 35 38 36 34 34 35 35 37 35 35 36 32 31 30 29 29 26 26 25 23 21 20 19 18 17 15 15 16 15 15 16 16 15
9 8 3 2 3 3 2 4 6 10 13 16 19 29 33 32 35 41 42 38 36 39 39 37 36 36 39 35 34 32 29 27 27 26 25 24 23 23 20 20 18 16 14 14 13 13 13 13 12
11 4 4 6 6 3 2 6 6 13 18 29 33 38 40 39 40 43 43 42 38 40 41 40 39 38 38 38 38 34 31 29 27 26 25 23 22 19 15 17 17 11 11 14 14 15 14 15 13
4 2 2 5 2 3 4 5 7 4 9 14 22 27 29 31 36 41 42 42 44 42 44 44 41 40 39 39 38 35 33 33 32 28 25 24 22 20 18 17 19 14 14 14 15 15 16 18 18
5 3 1 2 5 4 4 4 9 9 14 16 16 26 34 40 42 41 42 43 45 46 46 45 43 41 41 38 39 36 34 31 29 28 28 27 25 23 24 24 23 24 23 22 23 22 21 23 23
3 3 2 3 4 5 4 10 5 9 13 14 15 29 36 39 43 44 43 43 45 44 43 46 45 41 42 41 39 38 33 32 29 30 29 28 26 26 27 27 27 27 27 26 28 27 26 30 29
4 6 5 3 4 3 2 5 3 3 9 18 26 31 41 48 45 44 44 44 40 40 39 39 40 42 40 40 39 41 36 34 32 31 32 33 33 30 30 30 32 31 29 32 33 33 32 33 34

GFSSGP_850_spd_357.txt.gz
Wind_Speed
13 9 12 15 2 3 5 7 4 5 5 6 7 6 11 3 6 4 19 24 23 26 25 24 24 23 23 23 20 19 20 22 21 23 22 20 19 16 14 14 17 23 23 22 22 22 22 23 23
17 12 12 6 4 5 8 5 11 8 8 21 18 15 5 2 4 17 30 20 24 25 24 25 25 24 25 24 21 19 20 21 21 21 21 19 16 14 14 16 23 21 23 21 22 21 21 21 22
20 17 6 4 4 16 8 6 11 9 24 10 7 9 5 7 12 32 21 25 26 26 24 26 25 25 25 24 21 21 21 20 20 20 20 15 14 14 15 14 21 22 21 21 22 21 20 19 20
19 14 8 4 27 12 8 8 13 7 14 7 14 9 7 10 31 19 25 25 25 26 24 27 26 25 25 23 22 22 21 21 20 22 17 14 13 13 14 15 16 22 21 22 21 19 15 15 17
24 8 5 8 25 6 7 8 17 7 12 15 12 8 7 24 16 23 24 23 27 26 26 27 26 25 23 23 22 22 21 21 21 20 18 13 14 14 14 12 15 22 23 21 21 20 18 17 16
12 7 8 17 23 5 9 16 18 11 14 14 10 11 8 17 24 27 23 22 25 26 27 26 26 24 23 23 23 22 21 20 21 19 13 13 14 13 14 14 16 22 22 21 20 19 17 15 13
10 12 11 26 15 8 19 19 8 9 13 8 28 6 10 26 31 28 24 21 25 25 28 28 26 24 23 23 23 22 21 20 19 15 13 14 13 13 14 15 18 22 23 20 19 17 15 12 11
9 8 12 7 12 13 12 22 15 20 5 27 22 9 13 37 33 30 26 23 25 27 27 28 28 27 25 23 21 21 20 19 18 16 15 15 14 13 12 14 20 22 22 19 17 16 13 14 14
6 9 19 5 14 12 12 6 16 12 25 9 12 20 31 43 38 35 32 28 26 27 28 29 28 27 26 24 22 20 19 19 18 16 15 15 15 15 14 14 21 21 20 19 18 17 15 15 11
6 10 17 7 5 9 8 11 16 9 10 6 17 19 46 44 41 41 35 34 30 30 30 29 28 27 27 26 24 23 23 19 17 15 15 17 16 15 15 16 21 22 19 20 18 16 12 11 12
7 8 17 10 7 23 7 10 16 20 7 20 32 43 45 43 41 40 35 33 31 31 30 29 28 28 27 27 26 25 22 18 18 17 17 17 17 16 15 18 24 23 21 20 18 15 12 10 9
7 12 14 6 9 4 5 12 7 32 13 35 37 50 49 44 43 39 37 36 33 32 31 30 28 28 27 26 25 24 22 21 19 18 16 16 17 17 16 18 24 25 23 20 17 12 11 10 9
19 14 17 22 6 3 2 7 11 14 29 35 44 52 50 46 40 36 35 33 34 34 32 31 29 28 28 26 25 24 22 19 18 18 16 15 16 17 17 19 22 25 23 21 17 13 12 10 8
8 15 14 21 8 5 4 4 7 8 34 41 49 47 46 45 40 36 35 35 35 35 34 32 30 29 28 27 25 23 22 19 18 17 16 16 14 15 17 20 22 24 23 20 16 12 9 8 7
17 11 9 16 7 2 5 1 5 24 38 42 43 45 42 37 36 37 36 36 37 35 34 32 31 29 28 26 26 24 21 19 17 15 16 17 16 16 18 19 20 20 20 19 18 15 11 9 8
6 6 13 13 11 4 3 7 6 28 36 35 37 37 37 34 36 35 36 33 35 35 34 32 30 29 29 29 28 26 21 17 16 16 17 17 17 16 16 17 16 17 16 16 16 15 13 12 9
2 4 13 12 5 4 6 3 5 28 33 31 32 34 35 33 35 34 33 31 34 36 34 33 33 32 31 30 27 23 19 16 17 17 17 17 17 16 15 15 14 15 14 13 13 12 11 11 10
4 7 15 9 11 6 5 7 7 23 26 29 30 30 31 34 38 36 33 30 33 34 33 33 34 32 31 30 27 24 20 16 19 18 17 18 17 16 16 16 14 15 14 14 13 12 12 11 10
13 12 21 8 13 10 4 7 8 22 22 22 25 30 31 32 35 35 31 30 33 34 35 35 34 33 35 34 31 27 24 22 22 20 18 18 17 16 16 16 16 16 16 14 14 14 14 14 14
13 11 13 14 11 9 6 8 4 8 11 25 27 25 30 30 32 34 32 33 36 36 37 37 35 36 36 35 33 29 28 24 21 21 20 19 20 19 19 19 19 19 18 18 18 17 17 16 15
3 4 5 11 10 12 9 3 1 7 7 16 25 34 36 39 40 38 37 34 35 37 38 38 38 38 39 36 32 30 26 21 22 24 23 22 21 20 19 19 19 19 20 20 19 18 17 16 16
4 2 13 14 4 3 3 1 2 6 9 13 20 26 29 32 34 39 40 37 37 38 36 35 39 41 40 37 33 32 31 31 30 26 25 22 21 20 19 18 18 17 19 20 19 18 17 17 17
3 3 11 10 8 3 2 2 5 7 5 9 14 24 29 31 41 42 42 41 38 37 36 35 36 41 42 39 37 35 33 30 28 26 25 24 22 21 20 19 18 18 19 18 18 19 18 18 17
9 16 11 7 4 2 3 3 4 9 20 9 15 25 33 30 35 36 35 38 39 36 37 38 38 39 42 40 38 35 31 31 29 29 28 26 23 22 22 19 19 19 18 19 18 18 18 17 16
10 5 3 2 1 3 7 5 9 6 17 14 15 24 35 36 35 39 37 40 41 37 35 37 39 40 39 37 38 35 31 31 30 30 30 28 25 25 24 21 20 21 19 17 17 17 16 16 15
6 3 4 6 6 4 7 7 6 12 21 26 30 38 41 43 40 41 44 40 39 37 35 36 37 40 36 39 39 35 35 33 33 31 29 27 25 23 22 21 21 20 18 17 17 16 15 14 13
4 3 2 5 2 4 5 4 8 4 7 11 20 25 32 36 35 39 41 42 41 38 38 38 40 41 38 38 40 38 34 33 31 29 28 26 24 22 21 21 21 19 18 17 17 18 14 14 16
4 3 1 1 6 6 3 3 7 10 17 16 16 28 37 42 44 42 41 45 45 42 37 38 40 41 40 37 39 37 35 34 31 29 28 27 25 23 22 22 21 21 22 22 22 23 23 22 19
0 4 2 0 3 3 2 5 4 9 9 15 13 23 28 36 42 43 42 44 44 46 43 40 42 41 40 38 37 35 35 33 31 30 29 29 27 26 26 26 26 26 26 27 28 29 26 29 29
5 6 5 3 3 1 1 4 3 3 4 9 24 34 40 40 42 42 42 41 44 45 44 43 40 41 42 39 38 36 37 37 36 34 31 31 31 29 29 29 30 31 32 32 33 32 31 33 32

GFSSGP_850_spd_360.txt.gz
Wind_Speed
11 9 7 7 2 2 6 7 3 3 3 9 14 8 11 7 7 4 17 31 30 30 28 27 24 23 22 22 20 22 21 19 19 20 21 18 15 12 12 13 19 21 21 20 19 20 22 20 22
15 10 6 3 3 7 14 7 9 7 6 15 16 14 8 4 7 10 31 27 30 30 29 27 26 25 24 23 21 21 21 20 20 20 18 17 12 11 14 18 20 22 23 21 22 21 20 21 22
17 16 7 4 4 18 12 10 9 4 19 9 8 5 11 11 11 32 26 31 31 28 28 28 26 25 25 22 22 21 21 21 21 20 18 13 12 13 16 18 17 18 20 20 19 19 20 20 20
9 13 6 7 24 33 8 9 10 7 9 5 10 7 6 11 25 26 30 33 32 28 27 28 27 25 26 23 21 22 23 21 21 20 15 13 13 13 14 17 18 17 19 20 18 17 17 17 17
18 8 7 10 31 9 4 12 26 8 10 8 10 8 7 20 20 25 32 32 31 29 28 28 27 26 25 23 22 23 21 22 21 18 14 13 13 13 15 15 17 18 20 19 14 14 15 15 16
9 8 7 21 33 10 6 13 21 11 12 12 6 7 9 21 22 30 29 31 29 29 29 27 26 25 23 22 22 22 21 22 21 17 12 12 12 13 13 15 16 19 19 19 16 15 15 14 15
9 9 21 24 27 4 6 16 9 16 10 8 18 5 10 20 26 28 28 28 28 28 30 29 26 25 23 23 22 22 22 22 21 17 11 12 12 13 13 15 18 19 18 17 15 14 12 12 13
12 8 26 16 23 16 10 14 16 20 8 14 25 8 10 29 33 29 28 28 26 27 28 29 27 25 24 24 23 23 21 21 19 14 13 13 12 13 13 16 18 18 19 15 15 12 11 13 12
14 6 15 36 17 15 12 8 11 15 22 12 20 16 26 41 37 32 31 29 27 28 29 30 29 27 26 25 24 22 21 19 17 16 15 14 14 14 14 17 18 17 18 15 13 13 15 13 12
6 9 23 15 1 10 8 6 14 8 9 5 16 13 33 43 42 39 37 35 32 32 31 30 29 28 27 26 25 24 21 20 17 16 15 14 13 13 15 19 19 18 18 16 15 14 13 10 13
6 8 14 11 29 21 12 7 17 13 8 16 24 30 46 43 41 38 36 36 36 33 32 31 30 29 28 27 26 24 22 20 17 15 15 17 16 15 15 21 21 20 18 18 15 12 11 11 11
6 17 18 16 23 7 9 23 6 21 10 28 34 40 47 42 41 40 36 35 36 35 33 32 30 29 28 27 25 24 23 19 18 17 17 17 16 15 15 20 22 18 18 17 14 12 10 10 10
14 15 16 21 28 20 6 11 13 20 16 34 37 47 47 45 38 39 36 34 33 35 34 32 30 29 28 26 25 24 21 20 19 18 17 15 15 15 15 19 22 19 18 15 13 10 11 9 8
5 15 22 20 27 16 3 2 15 13 27 39 41 43 43 44 47 41 36 34 35 34 34 32 31 29 28 26 25 24 21 20 19 18 17 16 14 14 15 19 22 20 17 14 11 9 9 7 6
11 10 16 12 22 7 3 1 6 19 33 39 38 40 40 41 45 44 39 36 36 34 34 34 31 29 28 26 25 23 22 20 19 18 17 17 15 15 15 18 21 21 18 15 12 10 8 7 7
6 2 9 14 12 6 3 13 4 26 33 36 38 36 36 38 47 40 36 34 35 36 36 34 32 31 29 27 25 24 23 20 18 17 17 18 16 15 17 18 19 20 18 16 14 12 10 9 8
4 7 13 10 14 6 3 2 4 28 37 31 35 34 37 37 37 33 32 33 35 35 35 34 33 31 30 28 25 25 23 20 17 16 18 18 18 17 17 18 18 18 17 16 14 13 11 10 9
6 8 9 11 11 21 4 3 7 19 31 29 27 31 34 37 36 34 32 32 32 35 34 33 33 32 29 28 27 26 22 19 18 17 18 18 18 18 16 17 18 18 16 15 14 12 10 9 9
3 6 14 7 8 4 3 6 7 11 23 22 25 29 32 36 35 33 31 31 29 34 35 34 33 32 32 33 33 30 26 22 19 19 18 18 18 17 17 17 16 15 15 13 12 12 12 11 11
12 9 10 3 17 5 8 5 4 9 11 26 28 28 31 29 30 34 32 32 31 34 34 35 33 34 34 34 33 30 27 24 20 20 19 18 18 18 17 18 16 15 15 15 15 14 13 13 13
8 13 14 7 11 6 5 5 1 2 7 13 24 35 33 37 37 37 36 36 35 36 36 36 34 35 34 35 34 32 27 22 22 24 23 20 19 18 16 16 16 16 16 17 16 15 15 14 15
4 14 18 14 6 3 4 2 3 3 9 7 15 21 28 32 33 39 39 38 37 39 37 38 36 36 36 36 36 34 31 29 27 26 23 21 19 19 18 17 17 17 17 19 18 17 16 16 16
2 7 12 11 7 5 2 2 2 8 6 10 6 19 29 35 38 40 41 39 34 35 39 39 38 38 38 38 38 35 32 30 27 23 24 23 22 21 21 19 18 18 18 17 19 19 18 17 17
5 8 8 4 4 2 3 2 4 7 15 20 19 22 28 30 37 38 39 38 36 31 34 37 38 39 39 40 40 37 33 33 31 25 26 25 24 23 23 21 20 19 19 18 18 18 18 18 16
0 4 2 4 3 1 7 4 8 4 9 16 17 24 31 30 33 38 40 40 39 35 35 37 37 37 38 41 42 39 31 33 33 27 27 28 27 27 24 22 21 20 19 18 18 18 18 18 18
2 2 1 5 5 3 2 7 6 10 15 18 28 26 32 35 37 43 46 43 40 37 37 37 37 37 37 38 44 43 36 37 30 27 28 29 28 26 22 22 21 19 19 19 18 18 18 16 15
2 3 2 4 3 4 5 6 8 3 7 14 22 32 37 41 38 40 42 46 43 38 41 38 39 38 39 40 40 43 40 35 28 28 28 27 27 25 23 22 22 21 20 20 20 20 19 18 17
4 4 3 1 4 4 1 4 5 4 11 11 14 23 32 41 45 43 43 42 42 40 40 37 37 36 37 37 37 40 36 35 34 29 27 27 26 24 23 22 22 22 22 22 22 22 21 22 21
1 2 1 1 1 2 0 5 5 6 5 13 14 22 27 33 41 44 45 41 40 43 40 39 37 36 37 37 36 33 34 34 35 31 28 27 25 23 23 23 23 23 23 23 25 26 26 27 26
6 7 5 3 2 2 2 5 1 7 5 4 10 17 27 34 38 41 41 42 41 42 43 42 38 35 36 35 38 35 31 31 30 29 30 29 28 28 26 26 27 27 27 28 29 31 31 30 31

GFSSGP_850_spd_366.txt.gz
Wind_Speed
6 5 3 4 7 9 23 20 17 17 18 23 12 14 14 13 11 2 7 21 28 33 30 28 26 22 20 19 20 22 24 21 20 19 19 17 14 16 18 19 19 18 16 17 19 20 19 21 21
5 7 4 5 11 18 24 28 22 17 19 19 15 13 15 13 6 2 18 29 30 34 31 28 28 24 21 21 22 21 22 21 21 20 16 14 14 17 17 17 16 15 16 18 19 19 17 19 19
13 10 4 5 13 26 31 27 26 23 16 19 15 12 14 13 10 10 14 32 33 30 30 28 28 26 23 23 22 22 21 22 22 19 15 13 14 17 17 18 17 15 17 20 18 17 15 17 19
13 9 7 11 33 45 35 17 16 22 14 13 19 10 8 12 11 14 25 33 32 30 27 30 29 27 24 24 22 21 21 22 21 17 14 13 16 17 16 19 16 18 19 18 19 17 16 17 17
15 5 6 19 39 44 20 24 16 24 22 18 17 14 10 15 16 21 33 34 32 30 27 31 30 28 25 24 23 21 21 22 20 17 14 16 15 16 16 18 19 17 17 19 19 16 16 17 18
8 8 8 24 39 32 26 27 17 26 31 24 16 14 9 16 21 28 35 32 30 30 31 30 30 28 26 24 23 22 22 21 20 15 16 17 15 16 16 15 17 16 15 16 16 14 14 16 18
6 10 23 25 34 30 30 25 21 19 26 22 13 14 7 16 22 33 34 30 35 32 32 30 30 28 26 24 24 23 22 22 20 15 15 16 16 15 16 17 16 15 13 13 15 15 15 17 17
8 3 22 22 24 34 26 29 21 30 24 14 18 12 8 22 28 36 34 35 35 31 30 29 30 28 26 24 23 22 21 21 19 15 14 14 16 16 16 18 18 15 13 15 12 14 16 17 17
6 7 14 27 25 21 22 15 33 19 28 20 19 8 13 31 35 38 38 36 35 33 31 31 30 26 25 25 25 23 22 21 18 14 12 16 15 17 17 17 16 14 13 13 12 14 16 17 16
11 11 21 21 13 8 24 17 31 21 26 22 19 10 21 36 41 43 44 44 40 38 36 35 32 28 27 27 27 26 25 23 19 15 16 16 15 15 15 19 16 14 15 11 11 14 15 14 14
9 16 22 27 38 22 15 22 29 26 26 29 25 20 28 41 42 44 47 46 48 42 39 38 35 30 28 29 29 28 27 24 20 16 16 15 17 17 19 20 18 17 15 13 14 13 12 13 13
13 24 22 26 27 20 16 16 21 31 36 33 24 28 33 41 42 40 41 41 42 42 40 37 35 33 30 31 32 30 27 24 21 20 18 18 17 17 16 17 18 19 14 13 13 12 12 13 13
20 20 20 24 21 26 27 21 22 32 38 33 25 31 38 47 43 39 36 39 43 41 42 39 37 36 35 34 32 29 23 24 21 20 20 18 17 17 16 16 17 17 15 14 11 12 13 11 11
11 14 19 21 21 20 23 27 7 24 34 33 32 36 39 43 47 37 34 44 42 44 42 40 39 38 36 34 32 30 27 23 22 21 19 19 17 17 18 16 16 16 15 14 13 11 11 11 10
19 19 17 22 22 18 21 26 21 31 32 27 35 38 39 42 43 43 42 49 47 46 44 42 40 37 35 34 32 30 28 25 23 20 20 20 19 17 17 18 18 18 18 17 14 13 12 10 9
12 15 17 16 19 16 21 27 19 23 33 35 35 35 39 41 43 38 38 36 43 46 45 43 42 39 36 34 32 29 27 26 22 21 21 20 18 18 17 19 20 19 19 17 14 14 12 9 8
10 13 16 20 18 16 22 21 16 24 16 30 36 36 39 38 39 38 39 43 45 46 44 43 42 39 36 34 31 28 26 25 24 23 23 21 20 18 17 17 21 21 19 16 14 13 10 9 9
11 16 14 15 10 21 21 15 15 10 19 22 35 36 36 39 40 41 41 44 44 44 44 43 42 38 35 33 31 29 27 26 25 24 23 21 21 19 18 18 21 21 20 17 15 13 11 9 8
10 15 16 14 7 7 17 12 10 8 20 25 32 38 35 37 36 41 44 44 43 43 43 42 42 39 37 35 34 32 32 31 28 25 23 22 21 20 20 20 20 21 20 17 15 14 13 12 10
17 18 19 15 12 8 10 12 16 8 14 28 32 39 40 34 33 39 42 43 44 44 44 44 41 41 38 35 34 34 32 31 29 26 24 22 22 21 21 21 20 20 20 18 17 15 14 13 11
18 17 16 9 6 4 7 5 10 12 24 38 37 40 38 41 35 37 42 42 44 44 44 43 42 40 39 36 34 33 31 29 28 27 24 25 23 22 22 21 20 20 19 19 17 16 14 13 12
15 12 18 13 4 2 3 3 7 10 25 21 34 37 35 37 37 40 42 43 45 44 42 41 41 40 38 35 37 37 36 35 32 28 26 25 24 24 23 22 21 21 20 19 18 17 15 15 14
8 15 17 14 6 5 1 3 3 3 22 20 23 32 34 37 38 42 43 43 43 42 41 40 41 39 39 38 37 36 35 34 31 29 25 26 25 24 24 23 22 22 22 20 19 18 18 17 15
10 7 4 5 2 4 8 3 6 8 19 22 18 27 28 30 37 41 41 41 39 40 41 40 40 40 38 37 36 37 37 34 32 29 26 26 26 26 25 24 23 23 22 21 20 19 19 19 19
3 3 3 3 3 2 3 6 12 11 12 20 21 22 22 16 33 33 37 36 35 38 40 39 40 39 39 37 35 36 36 36 33 30 29 28 29 28 27 25 26 24 22 20 20 18 18 19 20
4 5 4 2 3 3 4 7 0 8 15 24 28 27 27 24 19 30 31 35 38 40 38 37 41 39 40 38 37 36 35 36 34 34 31 27 25 25 24 25 25 22 22 21 21 20 20 20 20
2 1 1 3 1 2 3 5 7 1 10 19 22 32 30 27 22 14 27 31 35 37 39 38 40 40 40 39 37 39 39 39 38 38 35 30 28 25 22 23 23 22 23 22 22 22 22 21 21
3 2 3 2 2 2 1 6 2 2 8 14 20 21 31 37 28 39 24 31 34 36 37 34 38 39 39 40 41 40 40 40 38 38 33 23 34 28 23 23 23 23 23 23 24 24 23 24 23
3 3 0 3 2 3 4 0 5 3 6 15 16 22 26 39 25 18 38 31 38 38 37 39 37 36 38 41 41 41 40 38 39 36 33 35 30 33 37 26 27 27 27 25 26 26 26 26 25
5 4 5 3 4 1 3 3 2 3 4 8 19 22 19 22 31 35 40 32 36 42 40 42 40 38 38 36 37 37 34 35 36 35 38 29 33 27 29 28 29 29 30 29 27 28 28 28 28